Miscellaneous Local Product
Issued by NWS Hastings, NE

Home | Current Version | Previous Version | Text Only | Print | Product List | Glossary Off
Versions: 1 2 3 4 5 6 7 8 9 10 11 12 13 14 15 16 17 18 19 20 21 22 23 24 25 26 27 28 29 30 31 32 33 34 35 36 37 38 39 40 41 42 43 44 45 46 47 48 49 50

000
AXUS43 KGID 202002
MISGRI

GID CWA HOURLY WEATHER ROUNDUP
NATIONAL WEATHER SERVICE HASTINGS NE
300 PM CDT MON OCT 20 2014

NOTE: "FAIR" INDICATES FEW OR NO CLOUDS BELOW 12,000 FEET WITH NO
SIGNIFICANT WEATHER AND/OR OBSTRUCTIONS TO VISIBILITY.

...SOUTH CENTRAL NEBRASKA...

CITY           SKY/WX    TMP DP  RH WIND       PRES   REMARKS
GRAND ISLAND   SUNNY     74  40  29 VRB3      30.09F
HASTINGS       SUNNY     72  38  29 CALM      30.08F
KEARNEY        SUNNY     72  41  33 E3        30.10F
ORD            SUNNY     72  40  31 SE5       30.07F
YORK           SUNNY     72  39  30 CALM      30.08F
AURORA         SUNNY     73  35  24 CALM      30.08F HAZE
LEXINGTON      SUNNY     77  41  27 S6        30.08F
HOLDREGE       SUNNY     74  39  28 CALM      30.08F
HEBRON         SUNNY     74  36  24 E5        30.07F HAZE

...NEBRASKA PANHANDLE...

CITY           SKY/WX    TMP DP  RH WIND       PRES   REMARKS
CHADRON        SUNNY     80  42  25 S15       29.97F
ALLIANCE       SUNNY     76  37  24 S18G26    30.04F
SCOTTSBLUFF    SUNNY     80  50  34 S12       30.02F
SIDNEY         SUNNY     76  38  25 S13       30.08F

...WESTERN AND NORTH CENTRAL NEBRASKA...

CITY           SKY/WX    TMP DP  RH WIND       PRES   REMARKS
VALENTINE      SUNNY     77  38  24 S10       30.04F
AINSWORTH      SUNNY     74  39  28 S8        30.06F
ONEILL         SUNNY     71  41  33 CALM      30.08F
BROKEN BOW     SUNNY     74  44  34 SE6       30.08F
IMPERIAL       SUNNY     75  39  27 S13       30.09F
NORTH PLATTE   SUNNY     77  39  25 S7        30.07F
MCCOOK         SUNNY     77  42  28 E6        30.09F

...EASTERN NEBRASKA...

CITY           SKY/WX    TMP DP  RH WIND       PRES   REMARKS
NORFOLK        SUNNY     72  37  28 CALM      30.06F
SO SIOUX CITY  SUNNY     72  39  30 N10       30.05F
TEKAMAH        SUNNY     74  37  26 NW10      30.04F
COLUMBUS       SUNNY     72  34  25 N5        30.08F
ALBION         SUNNY     71  36  27 CALM      30.08F
OMAHA EPPLEY   SUNNY     71  38  29 NW5       30.05F
OFFUTT AFB     SUNNY     71  41  33 VRB5      30.05F
MILLARD        SUNNY     70  42  36 W3        30.05F
LINCOLN        SUNNY     74  39  28 CALM      30.07F
NEBRASKA CITY  SUNNY     71  30  22 NE5       30.05F
BEATRICE       SUNNY     73  42  32 N3        30.06F HAZE
FALLS CITY     SUNNY     74  38  27 NW9       30.04F

...NORTHERN KANSAS...

CITY           SKY/WX    TMP DP  RH WIND       PRES   REMARKS
GOODLAND       SUNNY     75  42  30 S12       30.13F
HILL CITY      SUNNY     79  40  24 SE8       30.08F
NORTON         CLEAR     79  30  17 S5        30.07F
PHILLIPSBURG   SUNNY     79  43  27 CALM      30.07F
BELOIT         SUNNY     77  45  31 E5        30.05F
HAYS           SUNNY     77  45  31 E8        30.07F
RUSSELL        SUNNY     79  46  31 NE6       30.05F
CONCORDIA      SUNNY     76  45  33 VRB3      30.07F
SALINA         SUNNY     78  49  35 N3        30.06F
TOPEKA         SUNNY     76  47  35 NE9       30.04F



USA.gov is the U.S. government's official web portal to all federal, state and local government web resources and services.